Regional Weather Roundup
Issued by NWS Charleston, SC

Current Version | Previous Version | Graphics & Text | Print | Product List | Glossary On
Versions: 1 2 3 4 5 6 7 8 9 10 11 12 13 14 15 16 17 18 19 20 21 22 23 24 25 26 27 28 29 30 31 32 33 34 35 36 37 38 39 40 41 42 43 44 45 46 47 48 49 50
068
ASUS42 KCHS 261412
RWRCHS

REGIONAL WEATHER ROUNDUP
NATIONAL WEATHER SERVICE CHARLESTON SC
1000 AM EDT MON JUN 26 2017

NOTE: "FAIR" INDICATES FEW OR NO CLOUDS BELOW 12,000 FEET WITH NO
SIGNIFICANT WEATHER AND/OR OBSTRUCTIONS TO VISIBILITY.

NOT ALL STATIONS ARE QUALITY CONTROLLED. USE DATA WITH CAUTION...
ESPECIALLY DEWPOINT OBSERVATIONS.

SCZ027-030-031-034>040-042>050-261500-
...SOUTHEAST SOUTH CAROLINA...

CITY           SKY/WX    TMP DP  RH WIND       PRES   REMARKS
N CHARLESTON   PTSUNNY   78  67  68 NE13      30.09R
WATERFRONT PRK   N/A     77  74  91 NE12      30.07R
JOHNS ISLAND     N/A     77  73  88 NE9       30.08S
PINOPOLIS        N/A     77  70  78 NE12      30.03R
MONCKS CORNER  FAIR      79  66  65 E9        30.10S
SUMMERVILLE    FAIR      79  66  65 N7        30.10S
BEAUFORT MCAS  MOSUNNY   81  72  74 NE10      30.09R
BEAUFORT ARPT  FAIR      79  72  78 NE10      30.08S
HILTON HEAD IS MOSUNNY   79  75  89 N8        30.09R
WALTERBORO     SUNNY     79  68  69 NE13      30.11R
ALLENDALE      PTSUNNY   77  64  65 VRB7      30.11R

...SOUTHERN MIDLANDS AND PEE DEE...

CITY           SKY/WX    TMP DP  RH WIND       PRES   REMARKS
GEORGETOWN     PTSUNNY   75  68  78 NE8       30.11R
KINGSTREE      PTSUNNY   77  59  53 NE9       30.11S
ORANGEBURG     CLOUDY    79  60  52 NE13G18   30.12R
BARNWELL       PTSUNNY   77  63  61 NE12      30.13R
AIKEN          NOT AVBL
MANNING        FAIR      79  63  57 NE13G23   30.12R
COLUMBIA       MOSUNNY   81  53  37 NE8       30.13R
SUMTER         MOSUNNY   78  55  44 NE12      30.11R
FLORENCE       SUNNY     79  55  43 N12       30.13R
MYRTLE BEACH   MOSUNNY   79  63  57 MISG      30.11R
N MYRTLE BEACH CLOUDY    79  60  52 NE13      30.10R

$$

GAZ063-065-086>088-099>101-113>116-118-119-134>141-150-261500-
...SOUTHEAST GEORGIA...

CITY           SKY/WX    TMP DP  RH WIND       PRES   REMARKS
SAVANNAH ARPT  PTSUNNY   78  73  84 NE7       30.09S
HUNTER AAF     PTSUNNY   78  74  88 NE3       30.06S
FORT STEWART   PTSUNNY   79  73  83 NE6       30.07S
STATESBORO     PTSUNNY   79  71  76 E6        30.10S
SYLVANIA       SUNNY     80  72  76 E9        30.11S
CLAXTON        PTSUNNY   79  72  79 N3        30.10S

...CSRA...CENTRAL AND FAR SOUTHEAST GEORGIA...

CITY           SKY/WX    TMP DP  RH WIND       PRES   REMARKS
THOMSON        MOSUNNY   75  60  60 NE8       30.21R
AUGUSTA-BUSH   CLOUDY   N/A N/A N/A MISG      30.13R
AUGUSTA-DANIEL CLOUDY    79  58  48 NE8       30.15R
SWAINSBORO     FAIR      79  68  69 E8        30.13S
VIDALIA        CLOUDY    79  75  89 N7        30.11R
EASTMAN        FAIR      80  64  57 E6        30.14S
HAZLEHURST     CLOUDY    74  74 100 N5        30.10S FOG
ALMA           PTSUNNY   80  72  76 N3        30.09S
WAYCROSS       SUNNY     84  79  84 N3        30.09S HX  96
JESUP          PTSUNNY   81  72  74 CALM      30.09S
BAXLEY         CLOUDY    77  77 100 N3        30.10R
BRUNSWICK      CLOUDY    79  77  94 CALM      30.09S
SAINT SIMONS   CLOUDY    80  74  81 W5        30.08R

$$

SCZ027-028-034-036>038-045-046-048>050-GAZ119-141-261500-
...LAKE AND SUPPLEMENTAL COASTAL OBSERVATIONS...

STATION/POSITION TIME  TEMP    WIND        PRES    WAVE   SWELL
                       AIR SEA DIR/SP/G            HT/PER HT/PER/DIR
                 (UTC) (F)     (DEG/KT/KT) (MB)    (FT/S) (FT/S/D)
WINYAH BAY       1245   74      30/  6     1019.0
LAKE MURRAY      1320   75      30/  3/  6 1019.6
ACE BASIN NERRS  NOT AVBL
FORT PULASKI     1342   77 84   10/  5/  7 1019.1R
SAPELO ISLAND    1300   78        CALM     1018.0

$$

ANZ835-935-AMZ111-154-330-350-352-354-370-450-454-472-261500-
...C-MAN AND BUOY OBSERVATIONS...

STATION/POSITION TIME  TEMP    WIND        PRES    WAVE   SWELL
                       AIR SEA DIR/SP/G            HT/PER HT/PER/DIR
                 (UTC) (F)     (DEG/KT/KT) (MB)    (FT/S) (FT/S/D)
BUOY 41004       1350   78 81   80/  6/ 10 1017.1F   2/ 8   2/140/ 8
BUOY 41008       1250   79 82  310/  8/  8 1017.5    2/ 7   2/100/ 7
FOLLY BEACH CMAN 1300   76      20/ 10/ 12 1018.9R
CAPERS NEARSHORE 1308   81 83   30/ 14/ 21 1017.9R
FRIPP NEARSHORE  1308   78 83   20/ 10/ 14 1017.8R


STATION/POSITION TIME  TEMP    WIND        PRES    WAVE   SWELL
                       AIR SEA DIR/SP/G            HT/PER HT/PER/DIR
                 (UTC) (F)     (DEG/KT/KT) (MB)    (FT/S) (FT/S/D)
5E ST. MARYS GA  1330      80                N/A     2/ 8
FRYING PAN BUOY  1350   77 80   60/ 12/ 14 1018.5R   2/ 8   2/110/ 8
BUOY 41025       1250   78 79   20/ 10/ 10 1017.9    2/ 8   2/140/ 8
CAPE LOOKOUT NC  1300   76      10/  6/  7 1018.3R
BUOY 41002       1250   80 80  190/ 12/ 14 1018.8    3/ 6   2/190/ 6
BUOY 41010       1350   83 83  200/ 10/ 12 1018.8R   3/ 8   2/130/ 8
ST AUGUSTINE FL  1400   77 77   50/  5/  5 1018.8R


$$




USA.gov is the U.S. government's official web portal to all federal, state and local government web resources and services.